Regional Weather Roundup
Issued by NWS

Home | Current Version | Previous Version | Text Only | Print | Product List | Glossary Off
Versions: 1 2 3 4 5 6 7 8 9 10 11 12 13 14 15 16 17 18 19 20 21 22 23 24 25 26 27 28 29 30 31 32 33 34 35 36 37 38 39 40 41 42 43 44 45 46 47 48 49 50

000
ASUS43 KLOT 042121
RWRIL

ILLINOIS REGIONAL WEATHER ROUNDUP
NATIONAL WEATHER SERVICE CHICAGO/ROMEOVILLE IL
400 PM CDT MON MAY 04 2015

NOTE: "FAIR" INDICATES FEW OR NO CLOUDS BELOW 12,000 FEET WITH NO
SIGNIFICANT WEATHER AND/OR OBSTRUCTIONS TO VISIBILITY.

* THESE STATIONS ARE NOT UNDER NWS QUALITY CONTROL. THEY ALSO MAY NOT
  REPORT WEATHER SUCH AS PRECIPITATION OR FOG.

ILZ001-002-007-009-015-016-024-042200-
NORTHWEST ILLINOIS

CITY           SKY/WX    TMP DP  RH WIND       PRES   REMARKS
MOLINE         MOSUNNY   76  61  59 E14       30.07F
STERLING*      PTSUNNY   73  61  64 NE6       30.11F
SAVANNA*       MOSUNNY   74  58  57 CALM      30.11S
$$

ILZ003-004-008-010-011-017-018-042200-
NORTH CENTRAL ILLINOIS

CITY           SKY/WX    TMP DP  RH WIND       PRES   REMARKS
ROCKFORD       PTSUNNY   73  56  54 SE5       30.12F
FREEPORT*      PTSUNNY   72  57  59 CALM      30.14S
ROCHELLE*      PTSUNNY   70  58  66 CALM      30.13S
DE KALB*       PTSUNNY   70  58  65 N6        30.13S
PERU*          CLOUDY    74  58  57 E6        30.11F
$$

ILZ005-006-012>014-019>023-042200-
NORTHEAST ILLINOIS

CITY           SKY/WX    TMP DP  RH WIND       PRES   REMARKS
CHICAGO-OHARE  CLOUDY    70  56  61 E13       30.12S
CHICAGO-MIDWAY CLOUDY    68  57  68 E12       30.13S
AURORA         CLOUDY    70  56  61 CALM      30.13S
LANSING*       CLOUDY    65  55  68 NE10      30.13S
JOLIET*        CLOUDY    74  60  61 CALM      30.12S
WAUKEGAN       PTSUNNY   60  47  61 N12       30.14S
DUPAGE AIRPORT PTSUNNY   71  58  63 SW3       30.11F
KANKAKEE*      CLOUDY    69  64  85 CALM      30.13F
WHEELING       PTSUNNY   65  55  70 E12       30.15R
MORRIS*        CLOUDY    74  58  58 CALM      30.11S
ROMEOVILLE*    PTSUNNY   73  56  55 CALM      30.12S
NORTHERLY ISL    N/A     57  52  83 N7          N/A
$$

LMZ740>746-042200-
SOUTHERN LAKE MICHIGAN

STATION/POSITION SKY/WX   TEMP    WIND        PRES    VSBY  WAVE
                          AIR SEA DIR/SP/G                  HT/PER
                          (F)     (DEG/KT/KT) (MB)    (MI)  (FT/S)
HARRISON CRIB              55      50/ 17/ 18   N/A
BURNHAM HARBOR             57     360/  3/  8   N/A
CALUMET HARBOR             56      40/  6/ 13   N/A
BURNS HARBOR               57      80/ 12/ 14 1021.0R
MICHIGAN CITY              54      30/ 12/ 13   N/A
MICHIGAN CITY 6N           52 50   90/  6/  8   N/A           1
ST. JOSEPH                 50 49   70/  4/  6   N/A           1
$$

ILZ025>027-034>036-040-047-049-050-058-095>099-042200-
WEST-CENTRAL ILLINOIS

CITY           SKY/WX    TMP DP  RH WIND       PRES   REMARKS
QUINCY         PTSUNNY   80  60  50 SW14      30.05S HX  81
GALESBURG*     MOSUNNY   76  62  61 E6        30.07F
MACOMB*        PTSUNNY   73  66  78 E12       30.08F
JACKSONVILLE*  PTSUNNY   83  57  41 S7        30.06F HX  82
PITTSFIELD*    PTSUNNY   82  60  47 S8        30.07F HX  82
$$

ILZ028>032-037-038-041>044-048-051>054-059>061-042200-
CENTRAL ILLINOIS

CITY           SKY/WX    TMP DP  RH WIND       PRES   REMARKS
PONTIAC        CLOUDY    72  65  78 CALM      30.13F
BLOOMINGTON    CLOUDY    73  65  76 N7        30.12F
DECATUR        CLOUDY    79  57  46 SW14      30.10F HX  80
PEORIA         PTSUNNY   76  64  66 E5        30.10F
LACON*         PTSUNNY   73  62  66 E3        30.10F
LINCOLN*       CLOUDY    79  60  51 CALM      30.06F HX  80
SPRINGFIELD    PTSUNNY   83  55  38 SW8       30.07F HX  82
TAYLORVILLE    PTSUNNY   82  54  36 SW12G20   30.08F HX  81
$$

ILZ033-039-045-046-055>057-062-063-042200-
EAST-CENTRAL ILLINOIS

CITY           SKY/WX    TMP DP  RH WIND       PRES   REMARKS
CHAMPAIGN      LGT RAIN  77  58  51 SW13      30.10F
DANVILLE*      CLOUDY    68  61  78 NW13      30.09R
RANTOUL*       CLOUDY    72  67  83 N12       30.11S
MATTOON        CLOUDY    79  56  45 SW9G20    30.11F HX  80
PARIS*         PTSUNNY   81  58  46 SW16      30.12F HX  81
$$

ILZ079-100>102-042200-
SOUTHWEST ILLINOIS

CITY           SKY/WX    TMP DP  RH WIND       PRES   REMARKS
ALTON          PTSUNNY   82 N/A N/A S12       30.07
BELLEVILLE     PTSUNNY   83  58  41 VRB6      30.07F HX  83
CAHOKIA*       PTSUNNY   84  55  36 S10G17    30.06F HX  83
SPARTA*        MOSUNNY   81  60  48 S8G16     30.11F HX  81
$$

ILZ064>066-069>071-074>076-080>082-084>086-088>090-092>094-042200-
SOUTH-CENTRAL ILLINOIS

CITY           SKY/WX    TMP DP  RH WIND       PRES   REMARKS
CARBONDALE     MOSUNNY   82  54  37 S18       30.11F HX  81
CAIRO*         SUNNY     84  55  36 S15       30.13F HX  83
EFFINGHAM*     PTSUNNY   81  50  33 SW12G17   30.12F HX  80
MARION         PTSUNNY   84  57  39 S14       30.12F HX  83
MT. VERNON     PTSUNNY  N/A N/A N/A SW14      30.12F
CENTRALIA*     MOSUNNY   87  54  31 SW13G18   30.11F HX  85
SALEM*         MOSUNNY   86  51  30 SW14G21   30.11F HX  83
METROPOLIS*    MOSUNNY   83  57  40 S9G16     30.13F HX  82
$$

ILZ067-068-072-073-078-083-087-091-042200-
SOUTHEAST ILLINOIS

CITY           SKY/WX    TMP DP  RH WIND       PRES   REMARKS
LAWRENCEVILLE  PTSUNNY   84  57  39 SW14      30.12F HX  83
FLORA*         PTSUNNY   83  56  39 SW13      30.12F HX  82
FAIRFIELD*     MOSUNNY   82  57  43 SW12      30.11F HX  82
HARRISBURG*    MOSUNNY   83  53  36 SW16      30.14F HX  82
ROBINSON*      PTSUNNY   83  53  35 SW12G20   30.13S HX  82
CARMI*         MOSUNNY   83  49  30 SW15G21   30.12F HX  82
$$

ABBREVIATIONS USED IN REMARKS
   TC - TEMPERATURE IN CELSIUS
  WCI - WIND CHILL INDEX
   HX - HEAT INDEX
  VSB - VISIBILITY
$$




USA.gov is the U.S. government's official web portal to all federal, state and local government web resources and services.